Weather History for Rock Springs, WY

Change the Weather History Date:

Monday, April 22, 2013

  Actual Average Record
Temperature  
Mean Temperature 28 °F 43 °F  
Max Temperature 39 °F 56 °F 76 °F (2012)
Min Temperature 16 °F 31 °F 16 °F (2013)
Degree Days  
Heating Degree Days 37 22  
Month to date heating degree days 657 540  
Since 1 July heating degree days 7053 7369  
Cooling Degree Days 0 0  
Month to date cooling degree days 0 0  
Year to date cooling degree days 0 0  
Moisture  
Dew Point 22 °F    
Average Humidity 81    
Maximum Humidity 92    
Minimum Humidity 69    
Precipitation  
Precipitation T in 0.04 in 0.52 in (1999)
Month to date precipitation T 0.63  
Year to date precipitation T 2.24  
Sea Level Pressure  
Sea Level Pressure 30.06 in    
Wind  
Wind Speed 18 mph (NE)    
Max Wind Speed 30 mph    
Max Gust Speed 39 mph    
Visibility 5 miles    
Events Fog , Rain , Snow    
T = Trace of Precipitation, MM = Missing Value Source: NWS Daily Summary

Daily Weather History Graph

Daily Weather History Graph

Search for Another Location

Airport:

Trip Planner

Search our weather history database for the weather conditions in past years. The results will help you decide how hot, cold, wet, or windy it might be!

Date:

Astronomy

Apr. 22, 2013 Rise Set
Actual Time 6:25 AM MDT 8:04 PM MDT
Civil Twilight 5:55 AM MDT 8:34 PM MDT
Nautical Twilight 5:20 AM MDT 9:09 PM MDT
Astronomical Twilight 4:42 AM MDT 9:48 PM MDT
Moon 4:55 PM MDT (4/22) 4:24 AM MDT (4/22)
Length of Visible Light 14h 38m
Length of Day
13h 39m
Waxing Gibbous, 88% of the Moon is Illuminated
Apr 22
Waxing Gibbous
Apr 25
Full
May 2
Last Quarter
May 9
New
May 17
First Quarter

Hourly Weather History & Observations

Time (MDT) Temp. Windchill Dew Point Humidity Pressure Visibility Wind Dir Wind Speed Gust Speed Precip Events Conditions
12:54 AM 39.0 °F 30.3 °F 28.0 °F 65% 29.91 in 10.0 mi WSW 16.1 mph 28.8 mph 0.00 in Rain Light Rain
1:54 AM 37.0 °F 27.0 °F 30.0 °F 76% 29.89 in 10.0 mi SW 18.4 mph - 0.00 in   Clear
2:54 AM 35.1 °F 25.5 °F 28.9 °F 78% 29.88 in 10.0 mi WSW 15.0 mph - N/A   Clear
3:54 AM 35.1 °F 27.4 °F 28.9 °F 78% 29.87 in 10.0 mi WSW 10.4 mph - N/A   Overcast
4:54 AM 36.0 °F 29.6 °F 28.9 °F 76% 29.87 in 10.0 mi West 8.1 mph - 0.00 in   Overcast
5:54 AM 36.0 °F 28.0 °F 28.9 °F 76% 29.88 in 10.0 mi West 11.5 mph - 0.00 in   Overcast
6:38 AM 33.8 °F 24.8 °F 28.4 °F 81% 29.98 in 10.0 mi NNW 12.7 mph 18.4 mph N/A   Overcast
6:54 AM 32.0 °F 27.5 °F 30.0 °F 92% 29.92 in 10.0 mi NNW 4.6 mph - N/A   Overcast
7:01 AM 32.0 °F 27.5 °F 30.2 °F 93% 29.98 in 10.0 mi NNW 4.6 mph - N/A   Overcast
7:54 AM 28.9 °F 19.8 °F 24.1 °F 82% 29.96 in 10.0 mi ENE 10.4 mph - N/A   Overcast
8:07 AM 28.4 °F 19.1 °F 24.8 °F 86% 29.99 in 10.0 mi NE 10.4 mph - N/A   Overcast
8:15 AM 30.2 °F 21.3 °F 24.8 °F 80% 29.99 in 10.0 mi ENE 10.4 mph - N/A   Overcast
8:54 AM 28.9 °F 17.3 °F 21.9 °F 75% 29.99 in 10.0 mi ENE 16.1 mph - N/A   Mostly Cloudy
9:50 AM 26.6 °F 13.1 °F 21.2 °F 80% 30.02 in 3.0 mi ENE 19.6 mph - 0.00 in Snow Light Snow
9:54 AM 27.0 °F 13.2 °F 21.0 °F 78% 30.01 in 3.0 mi ENE 20.7 mph - 0.00 in Snow Light Snow
10:02 AM 26.6 °F 13.1 °F 21.2 °F 80% 30.02 in 5.0 mi ENE 19.6 mph - 0.00 in Snow Light Snow
10:07 AM 26.6 °F 12.7 °F 21.2 °F 80% 30.02 in 2.5 mi ENE 20.7 mph - 0.00 in Snow Light Snow
10:12 AM 24.8 °F 11.1 °F 21.2 °F 86% 30.02 in 0.8 mi ENE 18.4 mph - 0.00 in Snow Light Snow
10:21 AM 24.8 °F 11.1 °F 21.2 °F 86% 30.03 in 0.5 mi NE 18.4 mph - 0.00 in Fog , Snow Light Snow
10:27 AM 24.8 °F 12.4 °F 21.2 °F 86% 30.03 in 0.2 mi NE 15.0 mph - 0.00 in Fog , Snow Snow
10:54 AM 25.0 °F 11.3 °F 23.0 °F 92% 30.07 in 0.2 mi ENE 18.4 mph - 0.00 in Fog , Snow Snow
11:33 AM 26.6 °F 12.7 °F 21.2 °F 80% 30.05 in 0.5 mi NE 20.7 mph 26.5 mph 0.00 in Fog , Snow Snow
11:44 AM 26.6 °F 12.7 °F 21.2 °F 80% 30.04 in 1.0 mi NE 20.7 mph 27.6 mph 0.00 in Snow Light Snow
11:54 AM 25.0 °F 10.9 °F 21.9 °F 88% 30.08 in 1.2 mi NE 19.6 mph 26.5 mph 0.00 in Snow Light Snow
12:07 PM 26.6 °F 12.7 °F 21.2 °F 80% 30.06 in 0.8 mi NE 20.7 mph 27.6 mph 0.00 in Snow Light Snow
12:18 PM 26.6 °F 11.7 °F 21.2 °F 80% 30.05 in 0.5 mi NE 24.2 mph 32.2 mph 0.00 in Fog , Snow Snow
12:26 PM 24.8 °F 10.0 °F 21.2 °F 86% 30.06 in 0.8 mi NE 21.9 mph 32.2 mph 0.00 in Snow Light Snow
12:35 PM 26.6 °F 12.7 °F 21.2 °F 80% 30.06 in 1.5 mi ENE 20.7 mph 31.1 mph 0.00 in Snow Light Snow
12:44 PM 28.4 °F 14.4 °F 23.0 °F 80% 30.06 in 2.5 mi NE 23.0 mph 26.5 mph 0.00 in Snow Light Snow
12:50 PM 26.6 °F 12.4 °F 21.2 °F 80% 30.05 in 4.0 mi ENE 21.9 mph 28.8 mph 0.00 in Snow Light Snow
12:51 PM 28.0 °F 14.3 °F 21.9 °F 78% 30.07 in 4.0 mi ENE 21.9 mph 28.8 mph 0.00 in Snow Light Snow
1:25 PM 28.4 °F 14.1 °F 21.2 °F 74% 30.04 in 5.0 mi NE 24.2 mph 31.1 mph 0.00 in Snow Light Snow
1:54 PM 28.9 °F 15.4 °F 21.9 °F 75% 30.08 in 10.0 mi NE 21.9 mph 34.5 mph 0.00 in   Overcast
2:24 PM 28.4 °F 14.4 °F 21.2 °F 74% 30.05 in 10.0 mi NE 23.0 mph 28.8 mph 0.00 in   Overcast
2:52 PM 28.4 °F 13.5 °F 21.2 °F 74% 30.05 in 1.8 mi NE 26.5 mph 35.7 mph 0.00 in Snow Light Snow
2:54 PM 28.0 °F 13.0 °F 21.9 °F 78% 30.09 in 1.5 mi NE 26.5 mph 35.7 mph 0.00 in Snow Light Snow
3:18 PM 28.4 °F 14.1 °F 21.2 °F 74% 30.06 in 3.0 mi NE 24.2 mph 33.4 mph 0.00 in Snow Light Snow
3:54 PM 28.9 °F 14.3 °F 21.9 °F 75% 30.10 in 6.0 mi ENE 26.5 mph 34.5 mph 0.00 in Snow Light Snow
4:01 PM 28.4 °F 14.1 °F 21.2 °F 74% 30.06 in 4.0 mi NE 24.2 mph 34.5 mph 0.00 in Snow Light Snow
4:54 PM 28.0 °F 13.9 °F 21.0 °F 75% 30.11 in 6.0 mi NE 23.0 mph 34.5 mph 0.00 in Snow Light Snow
5:54 PM 28.0 °F 12.8 °F 19.9 °F 72% 30.12 in 10.0 mi ENE 27.6 mph 35.7 mph 0.00 in   Overcast
6:54 PM 25.0 °F 9.5 °F 19.0 °F 78% 30.17 in 4.0 mi NE 24.2 mph 34.5 mph 0.00 in Snow Light Snow
7:36 PM 23.0 °F 7.6 °F 19.4 °F 86% 30.11 in 2.5 mi NE 21.9 mph 29.9 mph 0.00 in Snow Light Snow
7:43 PM 23.0 °F 8.3 °F 19.4 °F 86% 30.12 in 1.8 mi NE 19.6 mph 29.9 mph 0.00 in Snow Light Snow
7:54 PM 21.9 °F 6.5 °F 18.0 °F 85% 30.23 in 2.5 mi NE 20.7 mph 33.4 mph 0.00 in Snow Light Snow
8:07 PM 21.2 °F 6.4 °F 17.6 °F 86% 30.13 in 3.0 mi ENE 18.4 mph 28.8 mph 0.00 in Snow Light Snow
8:20 PM 21.2 °F 6.8 °F 17.6 °F 86% 30.13 in 4.0 mi NE 17.3 mph 25.3 mph 0.00 in Snow Light Snow
8:54 PM 21.0 °F 3.9 °F 17.1 °F 85% 30.26 in 5.0 mi ENE 25.3 mph 32.2 mph 0.00 in Snow Light Snow
9:14 PM 19.4 °F 3.6 °F 17.6 °F 93% 30.15 in 2.5 mi NE 19.6 mph 28.8 mph 0.00 in Snow Light Snow
9:54 PM 19.9 °F 2.8 °F 16.0 °F 85% 30.29 in 3.0 mi ENE 24.2 mph 29.9 mph 0.00 in Snow Light Snow
10:54 PM 19.0 °F 3.6 °F 15.1 °F 85% 30.32 in 3.0 mi ENE 18.4 mph - 0.00 in Snow Light Snow
11:05 PM 19.4 °F 4.5 °F 15.8 °F 86% 30.18 in 1.8 mi ENE 17.3 mph 24.2 mph 0.00 in Snow Light Snow
11:19 PM 19.4 °F 3.2 °F 15.8 °F 86% 30.17 in 2.5 mi ENE 20.7 mph - 0.00 in Snow Light Snow
11:29 PM 17.6 °F 3.2 °F 14.0 °F 86% 30.17 in 4.0 mi ENE 15.0 mph - 0.00 in Snow Light Snow
11:54 PM 17.1 °F 4.3 °F 14.0 °F 88% 30.32 in 8.0 mi ENE 11.5 mph - 0.00 in   Overcast